FW5725 Weather Reports


time (UTC)temp
F
wind
direction
speed
knots
gust
knots
rain 1hr
in
rain 24hr
in
rain mn
in
humidity
%
barometer
mb
20260508053803 48 5 0.9 4.3 0.00 0.04 0.00 85 1019.3
20260508053301 48 5 0.9 4.3 0.00 0.04 0.00 85 1019.3
20260508052802 48 5 0.9 3.5 0.00 0.04 0.00 85 1019.2
20260508052306 48 5 1.7 5.2 0.00 0.04 0.00 85 1019.2
20260508051801 48 5 2.6 5.2 0.00 0.04 0.00 85 1019.1
20260508051301 48 5 1.7 4.3 0.00 0.04 0.00 85 1019.1
20260508050801 48 5 1.7 5.2 0.00 0.04 0.00 85 1019.1
20260508050302 48 5 2.6 5.2 0.00 0.04 0.00 85 1019.1
20260508045801 48 5 1.7 5.2 0.00 0.04 0.00 85 1019.1
20260508045307 48 5 1.7 4.3 0.00 0.04 0.00 85 1019.1
20260508044751 48 5 0.9 3.5 0.00 0.04 0.00 85 1019.1
20260508044513 48 5 1.7 4.3 0.00 0.04 0.00 85 1019.0
20260508043746 48 5 2.6 6.1 0.00 0.04 0.00 85 1019.0
20260508043245 48 5 1.7 6.1 0.00 0.04 0.00 85 1018.9
20260508042743 48 11 0.0 4.3 0.00 0.04 0.00 85 1019.0
20260508042243 48 11 0.0 2.6 0.00 0.04 0.00 85 1019.0
20260508042018 48 11 0.9 4.3 0.00 0.04 0.00 85 1018.9
20260508041513 48 11 1.7 4.3 0.00 0.04 0.00 85 1018.9
20260508040746 48 11 0.9 4.3 0.00 0.04 0.00 85 1018.8
20260508040238 48 11 0.9 4.3 0.00 0.04 0.00 85 1018.8
20260508040008 48 11 0.9 4.3 0.00 0.04 0.00 85 1018.8
20260508035235 48 11 0.0 2.6 0.00 0.04 0.00 85 1018.8
20260508034733 48 11 0.0 2.6 0.00 0.04 0.00 85 1018.8
20260508034232 48 11 0.9 3.5 0.00 0.04 0.00 85 1018.8
20260508033730 48 11 0.0 3.5 0.00 0.04 0.00 85 1018.7
20260508033229 48 11 0.0 0.0 0.00 0.04 0.00 85 1018.5
20260508032735 48 11 0.0 0.0 0.00 0.04 0.00 85 1018.5
20260508032234 48 11 0.0 0.0 0.00 0.04 0.00 85 1018.3
20260508031722 48 11 0.0 2.6 0.00 0.04 0.00 85 1018.3
20260508031216 48 11 0.9 5.2 0.00 0.04 0.00 85 1018.5
20260508030705 48 11 0.9 5.2 0.00 0.04 0.00 85 1018.5
20260508030434 48 14 0.9 4.3 0.00 0.04 0.00 85 1018.3
20260508025706 48 14 0.9 4.3 0.00 0.04 0.00 85 1018.3
20260508025205 48 15 0.9 4.3 0.00 0.04 0.00 85 1018.3
20260508024706 48 15 0.9 2.6 0.00 0.04 0.00 85 1018.3
20260508024204 48 15 0.9 3.5 0.00 0.04 0.00 85 1018.3
20260508023703 48 15 0.0 4.3 0.00 0.04 0.00 85 1018.3
20260508023202 48 15 0.9 4.3 0.00 0.04 0.00 85 1018.2
20260508022701 48 15 1.7 4.3 0.00 0.04 0.00 85 1018.2
20260508022434 48 16 1.7 4.3 0.00 0.04 0.00 85 1018.1
20260508021703 48 16 1.7 4.3 0.00 0.04 0.00 85 1018.1
20260508021201 48 17 1.7 5.2 0.00 0.04 0.00 85 1018.1
20260508020706 48 18 1.7 6.1 0.00 0.04 0.00 84 1018.1
20260508020206 48 0 2.6 6.1 0.00 0.04 0.00 85 1018.1
20260508015705 48 11 2.6 6.1 0.00 0.04 0.00 85 1018.0
20260508015205 48 0 2.6 6.1 0.00 0.04 0.00 84 1018.0
20260508014702 49 5 3.5 6.1 0.00 0.04 0.00 84 1018.0
20260508014156 49 5 3.5 6.1 0.00 0.04 0.00 84 1017.8
20260508013918 49 5 3.5 7.0 0.00 0.04 0.00 84 1017.8
20260508013154 49 5 2.6 7.0 0.00 0.04 0.00 84 1017.8
20260508012653 49 350 1.7 4.3 0.00 0.04 0.00 85 1017.7
20260508012150 49 0 1.7 4.3 0.00 0.04 0.00 85 1017.7
20260508011649 49 355 1.7 4.3 0.00 0.04 0.00 85 1017.8
20260508011146 49 0 1.7 5.2 0.00 0.04 0.00 85 1017.8
20260508010644 49 0 0.9 6.1 0.00 0.04 0.00 85 1017.8
20260508010141 49 0 0.9 6.1 0.00 0.04 0.00 85 1017.7
20260508005640 49 336 2.6 6.1 0.00 0.04 0.00 85 1017.8
20260508005139 49 317 2.6 5.2 0.00 0.04 0.00 85 1017.8
20260508004640 49 319 0.9 4.3 0.00 0.04 0.00 84 1017.8
20260508004138 50 319 0.0 3.5 0.00 0.04 0.00 85 1017.9
20260508003636 50 319 0.0 3.5 0.00 0.04 0.00 85 1017.9
20260508003355 50 319 0.9 3.5 0.00 0.04 0.00 85 1017.9
20260508002631 50 319 0.9 5.2 0.00 0.04 0.00 85 1017.8
20260508002355 50 319 0.9 5.2 0.00 0.04 0.00 85 1017.8
20260508001629 50 321 0.9 3.5 0.00 0.04 0.00 85 1017.9
20260508001129 50 321 0.9 3.5 0.00 0.04 0.00 85 1018.0
20260508000629 50 321 0.9 4.3 0.00 0.04 0.00 85 1017.9
20260508000400 50 321 1.7 6.1 0.00 0.04 0.00 85 1017.9
20260507235633 50 324 1.7 6.1 0.00 0.04 0.00 85 1017.9
20260507235133 50 333 0.9 4.3 0.00 0.04 0.00 84 1017.8
20260507234630 50 333 0.9 2.6 0.00 0.04 0.00 84 1017.8
20260507234129 50 334 0.0 2.6 0.00 0.04 0.00 84 1017.8
20260507234124 50 333 0.0 1.7 0.00 0.04 0.00 84 1017.7
20260507233350 50 333 0.0 2.6 0.00 0.04 0.00 84 1017.8
20260507232629 50 333 0.0 2.6 0.00 0.04 0.00 84 1017.8
20260507232129 50 334 0.0 0.0 0.00 0.04 0.00 84 1017.8
20260507231629 50 334 0.0 0.0 0.00 0.04 0.00 84 1017.7
20260507231128 50 334 0.9 2.6 0.00 0.04 0.00 84 1017.7
20260507230634 50 334 0.9 3.5 0.00 0.04 0.00 84 1017.7
20260507230131 50 334 0.9 3.5 0.00 0.04 0.00 84 1017.8
20260507225630 50 334 0.9 4.3 0.00 0.04 0.00 84 1017.8
20260507225129 50 334 0.9 5.2 0.00 0.04 0.00 84 1017.7
20260507224629 50 333 0.9 5.2 0.00 0.04 0.00 84 1017.8
20260507224353 50 339 0.0 4.3 0.00 0.04 0.00 84 1017.7
20260507223622 50 339 0.9 3.5 0.00 0.04 0.00 84 1017.7
20260507223112 50 339 1.7 5.2 0.00 0.04 0.00 84 1017.6
20260507222610 50 339 0.9 5.2 0.00 0.04 0.00 84 1017.6
20260507222106 51 334 0.9 4.3 0.00 0.04 0.00 84 1017.6
20260507221605 51 334 0.9 4.3 0.00 0.04 0.00 84 1017.7
20260507221105 51 338 0.0 2.6 0.00 0.04 0.00 84 1017.6
20260507220604 51 338 0.0 3.5 0.00 0.04 0.00 84 1017.5
20260507220104 51 338 0.9 3.5 0.00 0.04 0.00 84 1017.6
20260507215603 51 338 0.9 6.1 0.00 0.04 0.04 84 1017.6
20260507215104 51 338 0.9 6.1 0.00 0.04 0.04 84 1017.6
20260507214604 51 331 0.9 5.2 0.00 0.04 0.04 84 1017.4
20260507214104 51 331 0.9 5.2 0.00 0.04 0.04 84 1017.3
20260507213603 51 319 0.0 3.5 0.00 0.04 0.04 84 1017.3
20260507213324 51 319 0.9 3.5 0.00 0.04 0.04 84 1017.3
20260507212602 51 319 0.9 3.5 0.00 0.04 0.04 84 1017.4
20260507212101 51 319 0.9 4.3 0.00 0.04 0.04 84 1017.3
20260507211606 51 319 0.9 5.2 0.00 0.04 0.04 84 1017.4
20260507211334 51 324 0.9 5.2 0.00 0.04 0.04 84 1017.3
20260507210601 51 317 1.7 4.3 0.00 0.04 0.04 84 1017.2
20260507210327 51 323 0.9 4.3 0.00 0.04 0.04 84 1017.3
20260507205600 52 323 0.9 4.3 0.00 0.04 0.04 84 1017.1
20260507205057 52 333 0.9 3.5 0.00 0.04 0.04 84 1017.0
20260507204552 52 336 0.9 3.5 0.00 0.04 0.04 84 1016.9
20260507204316 52 336 0.9 4.3 0.00 0.04 0.04 84 1017.0
20260507203809 52 336 0.0 4.3 0.00 0.04 0.04 84 1016.9
20260507203040 52 336 0.0 2.6 0.00 0.04 0.04 84 1016.9
20260507202537 52 336 0.9 2.6 0.00 0.04 0.04 84 1016.9
20260507202035 52 336 0.9 3.5 0.00 0.04 0.04 84 1016.9
20260507201804 52 336 0.9 3.5 0.00 0.04 0.04 84 1016.9
20260507201034 52 338 0.9 5.2 0.00 0.04 0.04 84 1016.8
20260507200533 52 350 1.7 6.1 0.00 0.04 0.04 84 1016.7
20260507200033 53 350 1.7 6.1 0.00 0.04 0.04 84 1016.7
20260507195534 53 334 1.7 5.2 0.00 0.04 0.04 84 1016.7
20260507195032 53 302 2.6 7.0 0.00 0.04 0.04 84 1016.7
20260507194531 53 300 3.5 7.0 0.00 0.04 0.04 84 1016.6
20260507194307 53 305 2.6 5.2 0.00 0.04 0.04 84 1016.6
20260507193530 53 306 1.7 5.2 0.00 0.04 0.04 84 1016.6
20260507193029 53 331 0.9 5.2 0.00 0.04 0.04 84 1016.5
20260507192533 53 341 0.0 3.5 0.00 0.04 0.04 84 1016.4
20260507192034 53 348 0.0 0.9 0.00 0.04 0.04 84 1016.3
20260507191533 54 348 0.0 4.3 0.00 0.04 0.04 84 1016.3
20260507191033 54 348 0.9 4.3 0.00 0.04 0.04 84 1016.2
20260507190533 54 347 0.9 5.2 0.00 0.04 0.04 84 1016.1
20260507190301 54 350 1.7 6.1 0.00 0.04 0.04 84 1016.2
20260507185533 54 350 2.6 6.1 0.00 0.04 0.04 84 1016.1
20260507185033 55 355 2.6 6.1 0.00 0.04 0.04 84 1015.9
20260507184757 55 341 1.7 6.1 0.00 0.04 0.04 84 1015.8
20260507184029 55 350 0.9 6.1 0.00 0.04 0.04 84 1015.9
20260507183529 56 346 0.9 3.5 0.01 0.04 0.04 84 1015.8
20260507183256 56 346 0.9 3.5 0.02 0.04 0.04 84 1015.8
20260507182529 56 346 0.0 3.5 0.03 0.04 0.04 84 1015.7
20260507182257 56 355 0.9 3.5 0.03 0.04 0.04 84 1015.7
20260507181529 56 355 0.9 6.1 0.04 0.04 0.04 84 1015.3
20260507181029 56 355 0.9 6.1 0.04 0.04 0.04 84 1015.2
20260507180529 56 355 0.9 2.6 0.04 0.04 0.04 84 1015.0
20260507180033 56 351 0.9 5.2 0.04 0.04 0.04 84 1014.7
20260507175534 56 348 1.7 5.2 0.04 0.04 0.04 84 1014.9
20260507175034 57 346 1.7 4.3 0.04 0.04 0.04 84 1014.8
20260507174533 57 340 0.0 1.7 0.04 0.04 0.04 84 1015.0
20260507174034 57 340 0.0 3.5 0.04 0.04 0.04 84 1015.1
20260507173533 58 340 0.9 5.2 0.03 0.03 0.03 84 1015.3
20260507173033 58 347 0.9 7.8 0.02 0.02 0.02 83 1015.2
20260507172533 58 326 0.9 7.8 0.01 0.01 0.01 83 1015.1
20260507172034 59 323 1.7 6.1 0.01 0.01 0.00 82 1015.0
20260507171805 59 313 2.6 6.1 0.00 0.00 0.00 82 1014.9
20260507171259 60 350 2.6 7.0 0.00 0.00 0.00 81 1014.7
20260507170801 60 355 2.6 7.0 0.00 0.00 0.00 81 1014.6
20260507170528 60 25 2.6 7.0 0.00 0.00 0.00 81 1014.4
20260507165534 60 11 2.6 7.0 0.00 0.00 0.00 81 1014.4
20260507165029 60 17 3.5 7.0 0.00 0.00 0.00 80 1014.3
20260507164528 60 32 3.5 7.0 0.00 0.00 0.00 80 1014.0
20260507164029 60 0 4.3 7.8 0.00 0.00 0.00 80 1014.2
20260507163529 61 13 4.3 7.8 0.00 0.00 0.00 80 1013.9
20260507163030 61 13 3.5 8.7 0.00 0.00 0.00 79 1013.8
20260507162529 61 35 4.3 9.6 0.00 0.00 0.00 79 1013.9
20260507162024 61 23 5.2 9.6 0.00 0.00 0.00 79 1013.9
20260507161522 61 5 5.2 8.7 0.00 0.00 0.00 79 1013.9
20260507161015 61 32 3.5 11.3 0.00 0.00 0.00 79 1013.8
20260507160507 62 67 3.5 11.3 0.00 0.00 0.00 79 1013.8
20260507160007 62 44 4.3 8.7 0.00 0.00 0.00 79 1013.7
20260507155508 62 51 4.3 8.7 0.00 0.00 0.00 79 1013.7
20260507155006 62 32 4.3 7.8 0.00 0.00 0.00 79 1013.6
20260507154506 62 24 5.2 7.8 0.00 0.00 0.00 78 1013.6
20260507154009 62 355 5.2 8.7 0.00 0.00 0.00 78 1013.7
20260507153505 63 15 5.2 10.4 0.00 0.00 0.00 77 1013.7
20260507153005 63 57 5.2 11.3 0.00 0.00 0.00 77 1013.7
20260507152506 63 355 5.2 11.3 0.00 0.00 0.00 77 1013.6
20260507152004 63 351 5.2 11.3 0.00 0.00 0.00 77 1013.6
20260507151506 64 37 5.2 11.3 0.00 0.00 0.00 76 1013.6
20260507151035 65 5 5.2 12.2 0.00 0.00 0.00 74 1013.4
20260507151022 64 14 6.1 11.3 0.00 0.00 0.00 75 1013.4
20260507150007 65 334 3.5 12.2 0.00 0.00 0.00 72 1013.1
20260507145507 65 304 3.5 7.8 0.00 0.00 0.00 73 1013.2
20260507145229 65 317 5.2 10.4 0.00 0.00 0.00 73 1013.2
20260507144446 65 350 6.1 13.9 0.00 0.00 0.00 73 1013.2
20260507143939 65 0 6.1 13.9 0.00 0.00 0.00 73 1013.1
20260507143439 66 0 3.5 9.6 0.00 0.00 0.00 72 1013.0
20260507142939 66 321 3.5 9.6 0.00 0.00 0.00 72 1013.0
20260507142436 66 349 4.3 12.2 0.00 0.00 0.00 72 1013.0
20260507142214 67 347 4.3 12.2 0.00 0.00 0.00 71 1013.0
20260507141436 67 291 5.2 11.3 0.00 0.00 0.00 70 1013.0
20260507140938 68 306 5.2 11.3 0.00 0.00 0.00 68 1013.1
20260507140706 69 319 5.2 11.3 0.00 0.00 0.00 68 1013.1
20260507135941 69 355 4.3 11.3 0.00 0.00 0.00 68 1013.1
20260507135447 68 334 5.2 13.0 0.00 0.00 0.00 69 1013.0
20260507135209 68 296 5.2 13.0 0.00 0.00 0.00 67 1013.0
20260507134430 69 307 5.2 12.2 0.00 0.00 0.00 67 1013.0
20260507133929 69 304 6.1 14.8 0.00 0.00 0.00 67 1013.0
20260507133429 69 355 6.1 14.8 0.00 0.00 0.00 66 1012.9
20260507132930 70 344 5.2 12.2 0.00 0.00 0.00 65 1012.9
20260507132430 69 355 6.1 15.6 0.00 0.00 0.00 66 1012.9
20260507132148 69 346 6.1 15.6 0.00 0.00 0.00 64 1013.0
20260507131429 70 274 5.2 9.6 0.00 0.00 0.00 58 1012.8
20260507130928 70 288 4.3 8.7 0.00 0.00 0.00 58 1012.7
20260507130429 70 289 3.5 7.8 0.00 0.00 0.00 59 1012.8
20260507130157 69 315 3.5 7.8 0.00 0.00 0.00 62 1012.8
20260507125433 69 300 4.3 7.8 0.00 0.00 0.00 63 1012.8
20260507124936 69 302 3.5 7.8 0.00 0.00 0.00 60 1012.9
20260507124927 69 260 1.7 6.1 0.00 0.00 0.00 60 1013.0
20260507124203 69 208 1.7 6.1 0.00 0.00 0.00 61 1013.0
20260507123433 69 207 2.6 8.7 0.00 0.00 0.00 60 1013.0
20260507123157 69 238 2.6 8.7 0.00 0.00 0.00 60 1012.9
20260507122433 69 250 1.7 6.1 0.00 0.00 0.00 60 1012.9
20260507121926 69 238 1.7 6.1 0.00 0.00 0.00 61 1013.0
20260507121427 69 125 1.7 7.0 0.00 0.00 0.00 65 1013.0
20260507121154 68 123 0.9 7.0 0.00 0.00 0.00 66 1012.8
20260507120428 67 198 0.9 4.3 0.00 0.00 0.00 67 1013.1
20260507115926 67 198 1.7 6.1 0.00 0.00 0.00 67 1013.2
20260507115921 67 205 1.7 6.1 0.00 0.00 0.00 67 1013.1
20260507114926 66 246 1.7 7.8 0.00 0.00 0.00 65 1013.1
20260507114426 66 248 2.6 7.8 0.00 0.00 0.00 66 1013.2
20260507113927 66 279 3.5 7.8 0.00 0.00 0.00 66 1013.2
20260507113421 66 281 2.6 7.8 0.00 0.00 0.00 67 1013.2
20260507112909 66 288 3.5 7.8 0.00 0.00 0.00 67 1013.3
20260507112403 66 269 4.3 7.8 0.00 0.00 0.00 66 1013.2
20260507111904 67 249 3.5 8.7 0.00 0.00 0.00 65 1013.2
20260507111403 67 296 1.7 8.7 0.00 0.00 0.00 64 1013.1
20260507111129 67 338 0.9 5.2 0.00 0.00 0.00 66 1013.0
20260507110403 67 341 1.7 5.2 0.00 0.00 0.00 66 1013.1
20260507105902 67 336 2.6 6.1 0.00 0.00 0.00 67 1013.1
20260507105405 66 279 2.6 6.1 0.00 0.00 0.00 67 1013.1
20260507104905 66 284 3.5 7.0 0.00 0.00 0.00 66 1013.1
20260507104405 66 248 2.6 7.0 0.00 0.00 0.00 67 1013.1
20260507104353 66 300 2.6 6.1 0.00 0.00 0.00 68 1013.1
20260507103354 66 288 2.6 6.1 0.00 0.00 0.00 69 1013.1
20260507102848 65 281 2.6 6.1 0.00 0.00 0.00 68 1013.0
20260507102343 65 227 2.6 7.0 0.00 0.00 0.00 68 1013.1
20260507101836 66 219 3.5 8.7 0.00 0.00 0.00 68 1013.1
20260507101336 67 242 1.7 8.7 0.00 0.00 0.00 67 1013.0
20260507101055 66 286 1.7 7.0 0.00 0.00 0.00 69 1013.0
20260507100334 66 275 3.5 7.0 0.00 0.00 0.00 69 1013.1
20260507095835 65 290 2.6 6.1 0.00 0.00 0.00 70 1013.0
20260507095332 65 298 2.6 7.8 0.00 0.00 0.00 70 1012.9
20260507094832 65 266 3.5 8.7 0.00 0.00 0.00 71 1012.9
20260507094332 65 288 3.5 8.7 0.00 0.00 0.00 70 1012.8
20260507093832 64 286 2.6 7.0 0.00 0.00 0.00 73 1012.8
20260507093330 64 287 2.6 7.0 0.00 0.00 0.00 73 1012.9
20260507092831 64 286 3.5 7.0 0.00 0.00 0.00 73 1012.8
20260507092600 64 278 2.6 7.0 0.00 0.00 0.00 74 1012.8
20260507092055 64 338 1.7 5.2 0.00 0.00 0.00 76 1012.7
20260507091329 63 279 0.9 5.2 0.00 0.00 0.00 77 1012.7
20260507090830 63 340 0.9 5.2 0.00 0.00 0.00 78 1012.7
20260507090334 62 337 0.9 4.3 0.00 0.00 0.00 78 1012.7
20260507085833 62 337 0.9 7.0 0.00 0.00 0.00 80 1012.7
20260507085331 62 346 1.7 7.0 0.00 0.00 0.00 80 1012.6
20260507084826 62 333 2.6 6.1 0.00 0.00 0.00 81 1012.6
20260507084320 61 332 1.7 5.2 0.00 0.00 0.00 81 1012.6
20260507083817 61 348 1.7 5.2 0.00 0.00 0.00 82 1012.5
20260507083318 61 301 2.6 4.3 0.00 0.00 0.00 82 1012.5
20260507082818 61 301 1.7 4.3 0.00 0.00 0.00 82 1012.5
20260507082316 61 301 0.9 4.3 0.00 0.00 0.00 82 1012.3
20260507081814 61 296 1.7 6.1 0.00 0.00 0.00 82 1012.3
20260507081314 61 298 3.5 7.0 0.00 0.00 0.00 83 1012.2
20260507080812 61 313 3.5 7.0 0.00 0.00 0.00 83 1012.2
20260507080312 61 299 3.5 7.0 0.00 0.00 0.00 83 1012.1
20260507075810 61 292 3.5 7.0 0.00 0.00 0.00 83 1012.1
20260507075310 60 289 3.5 7.0 0.00 0.00 0.00 83 1012.1
20260507074810 60 287 1.7 6.1 0.00 0.00 0.00 84 1012.0
20260507074536 60 282 1.7 5.2 0.00 0.00 0.00 84 1011.9
20260507073806 60 279 2.6 5.2 0.00 0.00 0.00 84 1011.8
20260507073306 60 279 2.6 6.1 0.00 0.00 0.00 84 1011.9
20260507072806 60 277 3.5 7.8 0.00 0.00 0.00 84 1011.7
20260507072306 60 278 3.5 8.7 0.00 0.00 0.00 84 1011.8
20260507071802 60 304 4.3 8.7 0.00 0.00 0.00 84 1011.7
20260507071302 60 273 3.5 7.8 0.00 0.00 0.00 84 1011.6
20260507070802 60 284 2.6 5.2 0.00 0.00 0.00 84 1011.5
20260507070539 60 277 2.6 7.0 0.00 0.00 0.00 84 1011.4
20260507065802 59 278 3.5 7.8 0.00 0.00 0.00 85 1011.4
20260507065305 59 302 3.5 7.8 0.00 0.00 0.00 85 1011.4
20260507064801 59 227 3.5 7.8 0.00 0.00 0.00 84 1011.3
20260507064302 59 282 2.6 7.0 0.00 0.00 0.00 84 1011.3
20260507063801 59 244 2.6 5.2 0.00 0.00 0.00 85 1011.3
20260507063302 58 257 2.6 5.2 0.00 0.00 0.00 84 1011.2
20260507062801 58 260 1.7 4.3 0.00 0.00 0.00 84 1011.2
20260507062306 58 263 0.9 4.3 0.00 0.00 0.00 84 1011.2
20260507062034 58 278 0.9 3.5 0.00 0.00 0.00 84 1011.1
20260507061302 58 278 0.0 3.5 0.00 0.00 0.00 84 1010.9
20260507060801 58 278 0.0 3.5 0.00 0.00 0.00 84 1010.9
20260507060301 58 278 0.0 2.6 0.00 0.00 0.00 84 1010.6
20260507055802 58 278 0.0 0.0 0.00 0.00 0.00 84 1010.6
20260507055305 57 304 0.0 0.0 0.00 0.00 0.00 84 1010.5
20260507054802 57 304 0.0 0.0 0.00 0.00 0.00 84 1010.5
20260507054300 57 304 0.0 0.0 0.00 0.00 0.00 84 1010.5